Regional Weather Roundup
Issued by NWS

Home | Current Version | Previous Version | Text Only | Print | Product List | Glossary Off
Versions: 1 2 3 4 5 6 7 8 9 10 11 12 13 14 15 16 17 18 19 20 21 22 23 24 25 26 27 28 29 30 31 32 33 34 35 36 37 38 39 40 41 42 43 44 45 46 47 48 49 50

000
ASUS45 KTFX 200919
RWRMT
MONTANA HOURLY WEATHER ROUNDUP
NATIONAL WEATHER SERVICE GREAT FALLS MT
319 AM MDT WED AUG 20 2014

NOTE: "FAIR" INDICATES FEW OR NO CLOUDS BELOW 12000 FEET WITH NO
SIGNIFICANT WEATHER AND/OR OBSTRUCTIONS TO VISIBILITY.

* THESE STATIONS ARE NOT UNDER NWS QUALITY CONTROL. THEY DO NOT
   REPORT WEATHER SUCH AS PRECIPITATION OR FOG.

MTZ001>007-043-201000-
WEST OF THE DIVIDE
CITY           SKY/WX    TMP DP  RH WIND       PRES   REMARKS
KALISPELL      MOCLDY    57  55  93 CALM      29.80R
MISSOULA       LGT RAIN  63  52  68 E10       29.84R
BUTTE          PTCLDY    52  43  72 CALM      29.92S
MULLAN PASS    PTCLDY    54  45  72 S9        29.91S
$$

MTZ008-052>055-201000-
SOUTHWEST MONTANA
CITY           SKY/WX    TMP DP  RH WIND       PRES   REMARKS
BOZEMAN        MOCLDY    57  48  72 E3        29.86R
DILLON         MOCLDY    52  46  80 SW5       29.91S
W YELLOWSTONE  FOG       45  45 100 CALM      30.02F VSB M1/4
$$

MTZ009>010-012-014-046-048-049-054-201000-
EAST SLOPES AND CENTRAL MONTANA
CITY           SKY/WX    TMP DP  RH WIND       PRES   REMARKS
CUT BANK       CLOUDY    55  50  83 N9        29.79F
GREAT FALLS    MOCLDY    61  52  72 CALM      29.77F
HELENA         CLOUDY    63  54  73 SW6       29.81R
MALMSTROM AFB  PTCLDY    63  50  63 NW3       29.78F
$$

MTZ011-013-016-021-035-040-045-047-050-051-201000-
NORTH CENTRAL MONTANA
CITY           SKY/WX    TMP DP  RH WIND       PRES   REMARKS
HAVRE          PTCLDY    63  54  73 SW7       29.70F
LEWISTOWN      CLOUDY    66  45  47 W12       29.80R
$$

MTZ017>020-022>027-061-062-201000-
NORTHEAST MONTANA
CITY           SKY/WX    TMP DP  RH WIND       PRES   REMARKS
GLASGOW        LGT RAIN  70  52  53 E8        29.58S
GLENDIVE       MOCLDY    70  57  64 S10       29.65S
JORDAN         PTCLDY    63  54  73 W8        29.62R
SIDNEY         MOCLDY    66  61  84 CALM      29.63S
WOLF POINT     MOCLDY    64  46  52 E5        29.58S
$$

MTZ028>042-056>058-201000-
SOUTHCENTRAL AND SOUTHEAST MONTANA
CITY           SKY/WX    TMP DP  RH WIND       PRES   REMARKS
BAKER          PTCLDY    70  59  68 SE13      29.67F
BILLINGS       MOCLDY    70  45  41 W12       29.74F
LIVINGSTON     MOCLDY    66  45  47 SW20      29.83R
MILES CITY     MOCLDY    70  52  53 S7        29.63S
$$

REGIONAL REPORTS...DAKOTAS
CITY           SKY/WX    TMP DP  RH WIND       PRES   REMARKS
WILLISTON      MOCLDY    66  61  84 CALM      29.63S
DICKINSON      CLEAR     63  57  81 S8        29.66F
BEACH          N/A       64  61  90 SE7       29.67S
CROSBY         CLEAR     68  64  87 S14       29.62S
TIOGA          CLEAR     63  63 100 SE8       29.69S
WATFORD CITY   CLEAR     64  61  90 SE6       29.63S
BISMARCK       CLEAR     66  63  90 SE8       29.70F
GRAND FORKS    CLEAR     63  61  93 SE6       29.76S
FARGO          PTCLDY    66  61  84 SE6       29.77R
BUFFALO SD     CLOUDY    72  61  68 SE12      29.64R
RAPID CITY     MOCLDY    68  55  63 SE6       29.72F
$$

REGIONAL REPORTS...WYOMING/IDAHO/WASHINGTON
CITY           SKY/WX    TMP DP  RH WIND       PRES   REMARKS
GILLETTE       CLOUDY    72  46  40 SW15      29.76R
SHERIDAN       CLOUDY    72  45  38 CALM      29.75S
CODY           CLOUDY    66  45  47 SW9G16    29.85F
YELLOWSTONE LA MOCLDY    43  41  93 CALM      30.09F
SALMON         CLOUDY    57  52  83 NE5       29.88F
MULLAN PASS    PTCLDY    54  45  72 S9        29.91S
SAND POINT     MOCLDY    59  59 100 NE6       29.74S
SPOKANE        MOCLDY    66  52  61 SE3       29.71S
$$

REGIONAL REPORTS...ALBERTA
CITY           SKY/WX    TMP DP  RH WIND       PRES   REMARKS
CALGARY        MOCLDY    57  55  93 N6        29.80R
LETHBRIDGE     CLOUDY    55  54  96 N5        29.76S
MEDICINE HAT   CLEAR     55  55 100 W7        29.71R
EDMONTON       CLOUDY    55  52  90 NW9       29.77R
WATERTON GATE  N/A       57  46  67 SW12G17    N/A
CARDSTON       N/A       55  52  90 NE1        N/A
$$

REGIONAL REPORTS...SASKATCHEWAN
CITY           SKY/WX    TMP DP  RH WIND       PRES   REMARKS
SWIFT CURRENT  CLEAR     59  55  87 N5        29.64F
REGINA         FAIR      64  59  84 E12       29.61F
VAL MARIE      N/A       61  57  87 N9         N/A
ASSINIBOIA     N/A       63  57  81 SE7        N/A
CORONACH       N/A       59  55  87 E1         N/A

$$




USA.gov is the U.S. government's official web portal to all federal, state and local government web resources and services.